Location: Kolin
(50.0330°N, 15.2000°E)
Time: 08:20:15
(UTC+02:00)

Gurwin Techsat 1B - Pass Details

Date: 17 August 2022
Orbit: 811 x 814 km, 98.8° (Epoch: 25 September)

Event Time Altitude Azimuth Distance (km) Brightness Sun altitude
Rises 04:19:09 0° 12° (NNE) 3,352 12.7 -13.4°
Reaches altitude 10° 04:21:32 10° 8° (N) 2,415 11.8 -13.1°
Maximum altitude 04:26:44 56° 292° (WNW) 967 8.8 -12.5°
Enters shadow 04:30:59 15° 218° (SW) 2,043 10.1 -12.0°
